Location: Unspecified
(35.6961°N, 0.0000°E)
Time: 02:19:30
(UTC+00:00)

S-56A Canister/Altair - Pass Details

Date: 03 October 2020
Orbit: 632 x 2500 km, 38.9° (Epoch: 20 October)

Event Time Altitude Azimuth Distance (km) Brightness Sun altitude
Rises 20:54:48 0° 286° (WNW) 5,679 12.8 -39.2°
Reaches altitude 10° 21:00:32 10° 269° (W) 4,324 11.9 -40.2°
Maximum altitude 21:06:53 17° 235° (SW) 3,320 10.9 -41.4°
Enters shadow 21:09:29 15° 216° (SW) 3,239 10.7 -41.8°
